Stündliche Wetter Bolshie Filipkovichi

Heute, 21 April, Mittwoch

Zeit Temperatur Niederschläge Wind Luftdruck Luftfeuchtigkeit
00:00 +5°C° 0 mm 2 m/S 744 mmHg 91%
01:00 +5°C° 0 mm 2 m/S 744 mmHg 92%
02:00 +5°C° 0 mm 2 m/S 743 mmHg 92%
03:00 +5°C° 0 mm 2 m/S 743 mmHg 92%
04:00 +5°C° 0 mm 2 m/S 743 mmHg 93%
05:00 +5°C° 0 mm 2 m/S 743 mmHg 93%
06:00 +5°C° 0 mm 2 m/S 743 mmHg 91%
07:00 +6°C° 0 mm 1 m/S 743 mmHg 89%
08:00 +7°C° 0 mm 1 m/S 744 mmHg 87%
09:00 +7°C° 0.1 mm 1 m/S 744 mmHg 80%
10:00 +7°C° 0.1 mm 2 m/S 744 mmHg 73%
11:00 +8°C° 0.1 mm 2 m/S 744 mmHg 67%
12:00 +9°C° 0 mm 2 m/S 744 mmHg 63%
13:00 +9°C° 0 mm 2 m/S 744 mmHg 60%
14:00 +10°C° 0 mm 3 m/S 744 mmHg 56%
15:00 +10°C° 0 mm 2 m/S 744 mmHg 56%
16:00 +10°C° 0 mm 2 m/S 744 mmHg 56%
17:00 +11°C° 0 mm 1 m/S 744 mmHg 57%
18:00 +9°C° 0 mm 2 m/S 744 mmHg 62%
19:00 +8°C° 0 mm 2 m/S 744 mmHg 68%
20:00 +7°C° 0 mm 2 m/S 744 mmHg 73%
21:00 +7°C° 0 mm 2 m/S 744 mmHg 77%
22:00 +7°C° 0 mm 2 m/S 744 mmHg 80%
23:00 +7°C° 0 mm 3 m/S 744 mmHg 83%

Morgen, 22 April, Donnerstag

Zeit Temperatur Niederschläge Wind Luftdruck Luftfeuchtigkeit
00:00 +5°C° 0.1 mm 3 m/S 744 mmHg 87%
01:00 +5°C° 0.1 mm 3 m/S 745 mmHg 90%
02:00 +5°C° 0.1 mm 2 m/S 745 mmHg 93%
03:00 +5°C° 0 mm 2 m/S 745 mmHg 93%
04:00 +5°C° 0 mm 2 m/S 744 mmHg 93%
05:00 +5°C° 0 mm 2 m/S 744 mmHg 93%
06:00 +5°C° 0 mm 3 m/S 745 mmHg 88%
07:00 +7°C° 0 mm 4 m/S 745 mmHg 83%
08:00 +10°C° 0 mm 4 m/S 745 mmHg 79%
09:00 +10°C° 0.4 mm 5 m/S 745 mmHg 71%
10:00 +13°C° 0.4 mm 5 m/S 745 mmHg 64%
11:00 +14°C° 0.4 mm 6 m/S 745 mmHg 57%
12:00 +15°C° 0.1 mm 6 m/S 745 mmHg 53%
13:00 +15°C° 0.1 mm 6 m/S 745 mmHg 49%
14:00 +16°C° 0.1 mm 6 m/S 744 mmHg 45%
15:00 +15°C° 0 mm 5 m/S 744 mmHg 48%
16:00 +15°C° 0 mm 5 m/S 744 mmHg 51%
17:00 +14°C° 0 mm 5 m/S 744 mmHg 53%
18:00 +13°C° 0.7 mm 4 m/S 745 mmHg 65%
19:00 +11°C° 0.7 mm 4 m/S 745 mmHg 77%
20:00 +9°C° 0.7 mm 3 m/S 745 mmHg 89%
21:00 +8°C° 0.6 mm 4 m/S 745 mmHg 89%
22:00 +7°C° 0.6 mm 4 m/S 745 mmHg 89%
23:00 +7°C° 0.6 mm 5 m/S 745 mmHg 89%

übermorgen, 23 April, Freitag

Zeit Temperatur Niederschläge Wind Luftdruck Luftfeuchtigkeit
00:00 +6°C° 0.3 mm 4 m/S 746 mmHg 87%
01:00 +5°C° 0.3 mm 3 m/S 746 mmHg 85%
02:00 +5°C° 0.3 mm 2 m/S 746 mmHg 83%
03:00 +5°C° 0 mm 2 m/S 746 mmHg 84%
04:00 +5°C° 0 mm 2 m/S 746 mmHg 85%
05:00 +5°C° 0 mm 2 m/S 746 mmHg 86%
06:00 +5°C° 0 mm 2 m/S 747 mmHg 82%
07:00 +5°C° 0 mm 3 m/S 747 mmHg 77%
08:00 +5°C° 0 mm 3 m/S 747 mmHg 72%
09:00 +5°C° 0 mm 3 m/S 747 mmHg 68%
10:00 +7°C° 0 mm 3 m/S 747 mmHg 64%
11:00 +7°C° 0 mm 3 m/S 747 mmHg 59%
12:00 +8°C° 0 mm 3 m/S 747 mmHg 56%
13:00 +8°C° 0 mm 3 m/S 747 mmHg 53%
14:00 +8°C° 0 mm 3 m/S 747 mmHg 50%
15:00 +8°C° 0.1 mm 3 m/S 747 mmHg 51%
16:00 +8°C° 0.1 mm 3 m/S 747 mmHg 52%
17:00 +9°C° 0.1 mm 3 m/S 747 mmHg 53%
18:00 +7°C° 0.1 mm 3 m/S 747 mmHg 59%
19:00 +6°C° 0.1 mm 2 m/S 747 mmHg 64%
20:00 +5°C° 0.1 mm 2 m/S 747 mmHg 70%
21:00 +4°C° 0 mm 2 m/S 747 mmHg 72%
22:00 +4°C° 0 mm 2 m/S 747 mmHg 75%
23:00 +3°C° 0 mm 2 m/S 747 mmHg 77%

24 April, Samstag

Zeit Temperatur Niederschläge Wind Luftdruck Luftfeuchtigkeit
00:00 +2°C° 0 mm 3 m/S 747 mmHg 80%
01:00 +1°C° 0 mm 3 m/S 747 mmHg 83%
02:00 +1°C° 0 mm 3 m/S 746 mmHg 85%
03:00 +1°C° 0 mm 3 m/S 746 mmHg 86%
04:00 0°C° 0 mm 3 m/S 746 mmHg 87%
05:00 0°C° 0 mm 3 m/S 746 mmHg 88%
06:00 0°C° 0 mm 4 m/S 747 mmHg 84%
07:00 0°C° 0 mm 4 m/S 747 mmHg 80%
08:00 +1°C° 0 mm 5 m/S 747 mmHg 76%
09:00 +1°C° 0 mm 5 m/S 747 mmHg 74%
10:00 +1°C° 0 mm 5 m/S 747 mmHg 72%
11:00 +1°C° 0 mm 5 m/S 747 mmHg 70%
12:00 +2°C° 0 mm 5 m/S 747 mmHg 66%
13:00 +3°C° 0 mm 5 m/S 747 mmHg 62%
14:00 +5°C° 0 mm 5 m/S 747 mmHg 58%
15:00 +5°C° 0.2 mm 5 m/S 747 mmHg 60%
16:00 +5°C° 0.2 mm 5 m/S 746 mmHg 62%
17:00 +5°C° 0.2 mm 5 m/S 746 mmHg 64%
18:00 +4°C° 0.1 mm 4 m/S 746 mmHg 69%
19:00 +3°C° 0.1 mm 3 m/S 747 mmHg 75%
20:00 +2°C° 0.1 mm 3 m/S 747 mmHg 80%
21:00 +2°C° 0 mm 3 m/S 747 mmHg 83%
22:00 +1°C° 0 mm 3 m/S 747 mmHg 85%
23:00 +1°C° 0 mm 3 m/S 746 mmHg 87%

25 April, Sonntag

Zeit Temperatur Niederschläge Wind Luftdruck Luftfeuchtigkeit
00:00 0°C° 0 mm 3 m/S 746 mmHg 89%
01:00 0°C° 0 mm 3 m/S 746 mmHg 92%
02:00 -1°C° 0 mm 3 m/S 746 mmHg 94%
03:00 -1°C° 0 mm 3 m/S 746 mmHg 93%
04:00 -1°C° 0 mm 3 m/S 746 mmHg 93%
05:00 -1°C° 0 mm 2 m/S 746 mmHg 92%
06:00 0°C° 0 mm 3 m/S 746 mmHg 83%
07:00 +1°C° 0 mm 3 m/S 746 mmHg 74%
08:00 +1°C° 0 mm 4 m/S 746 mmHg 65%
09:00 +3°C° 0 mm 4 m/S 746 mmHg 58%
10:00 +3°C° 0 mm 5 m/S 746 mmHg 51%
11:00 +5°C° 0 mm 5 m/S 746 mmHg 44%
12:00 +6°C° 0.1 mm 5 m/S 746 mmHg 46%
13:00 +6°C° 0.1 mm 5 m/S 746 mmHg 48%
14:00 +6°C° 0.1 mm 5 m/S 746 mmHg 50%
15:00 +5°C° 0.2 mm 5 m/S 746 mmHg 56%
16:00 +5°C° 0.2 mm 5 m/S 746 mmHg 61%
17:00 +5°C° 0.2 mm 5 m/S 746 mmHg 66%
18:00 +3°C° 0.1 mm 4 m/S 746 mmHg 74%
19:00 +1°C° 0.1 mm 4 m/S 746 mmHg 81%
20:00 +1°C° 0.1 mm 3 m/S 747 mmHg 88%
21:00 +1°C° 0 mm 3 m/S 747 mmHg 89%
22:00 +1°C° 0 mm 2 m/S 747 mmHg 90%
23:00 +1°C° 0 mm 2 m/S 747 mmHg 90%

26 April, Montag

Zeit Temperatur Niederschläge Wind Luftdruck Luftfeuchtigkeit
00:00 -1°C° 0 mm 2 m/S 747 mmHg 91%
01:00 -1°C° 0 mm 2 m/S 747 mmHg 92%
02:00 -2°C° 0 mm 2 m/S 747 mmHg 93%
03:00 -2°C° 0 mm 2 m/S 747 mmHg 93%
04:00 -2°C° 0 mm 2 m/S 747 mmHg 94%
05:00 -2°C° 0 mm 2 m/S 747 mmHg 94%
06:00 -1°C° 0 mm 2 m/S 747 mmHg 86%
07:00 +2°C° 0 mm 2 m/S 747 mmHg 79%
08:00 +3°C° 0 mm 2 m/S 748 mmHg 71%
09:00 +5°C° 0.1 mm 2 m/S 747 mmHg 64%
10:00 +6°C° 0.1 mm 2 m/S 747 mmHg 57%
11:00 +7°C° 0.1 mm 3 m/S 747 mmHg 50%
12:00 +7°C° 0.2 mm 3 m/S 747 mmHg 48%
13:00 +7°C° 0.2 mm 3 m/S 747 mmHg 46%
14:00 +8°C° 0.2 mm 3 m/S 747 mmHg 44%
15:00 +8°C° 0.1 mm 3 m/S 747 mmHg 47%
16:00 +7°C° 0.1 mm 3 m/S 746 mmHg 49%
17:00 +7°C° 0.1 mm 3 m/S 746 mmHg 52%
18:00 +4°C° 0.1 mm 3 m/S 746 mmHg 61%
19:00 +3°C° 0.1 mm 3 m/S 747 mmHg 71%
20:00 +2°C° 0.1 mm 2 m/S 747 mmHg 80%
21:00 +2°C° 0 mm 2 m/S 747 mmHg 83%
22:00 +1°C° 0 mm 2 m/S 747 mmHg 86%
23:00 0°C° 0 mm 3 m/S 746 mmHg 89%
Mehr zeigen

Wir brauchen deine Erlaubnis

Meteoprog und unser Service Anbieter werden persönliche Daten aufbewahren, so wie Cookies, Geräte Bezeichnung oder ähnliche Technologien von deinem Gerät und Prozess, so wie Persönliche Daten Inhalte und Werbungen, genauso wie social Media und den Verkehr zu analysieren.

  • Aufbewahrung und/oder Zugang zu deiner Geräte Informationen.

    Cookies, Geräte Bezeichnung oder andere Informationen, können aufbewahrt oder Zugang zu deinem Gerät erhalten, für den Grund, der oben angegeben wird.

  • Personalisierte Werbung und Inhalte, Messungen, Einblick in das Publikum und Produkt Entwicklung.

    Werbungen und Inhalte können personalisiert werden, basierend auf ein Profil. Mehr Daten können besser personalisierte Werbungen und Inhalte hinzufügen. Werbung und Inhalte können gezeigt und gemessen werden. Einblicke über das Publikum, welche die Werbung gesehen haben und den Inhalt, können abgeleitet werden. So wie Daten können genutzt werden, um es zu verbessern oder die Benutzer Erfahrung zu verbessern das System und die Software.

Wenn du “Ich stimme zu” klickst, erlaubst du uns, die Cookies zu benutzen die Geräte Bezeichnung, den Web oder ähnliche Technologien zu benutzen. Deine Settings, können in deinem Gerät bei deinem Browser geändert werden.

Für den bestimmten Zweck, berechtigten Interessen beruhen darauf, mehr als auf den Inhalt. Du kannst mehr darüber in unseren Privaten und Cookie Politik lesen.